Dewpoint
74 73 72 69 56 52 48 48 51 49 49 53 53 53 55 58 53 47 62 63 63 65 68 71 72 72 71 70 70 73 72 73 73 73 72 72 72 73 72 72 72 72 71 71 70 72 71 71 70
70 68 67 63 50 45 47 51 50 49 53 54 57 57 58 58 62 62 60 63 63 66 68 69 73 72 70 71 72 73 72 73 72 72 73 72 72 72 71 73 72 71 71 72 72 71 70 71 70
69 68 65 54 50 47 47 51 53 54 54 55 56 58 57 58 61 59 64 64 65 68 68 70 72 72 70 70 73 73 73 73 73 72 72 72 72 71 72 71 72 72 72 71 71 72 71 71 70
71 68 63 51 48 51 50 52 53 53 54 55 54 54 60 62 60 64 66 65 66 69 69 71 72 71 70 71 73 73 73 73 73 72 71 72 72 72 72 71 71 73 72 71 71 71 71 71 71
71 63 52 49 49 50 52 53 52 52 53 53 52 54 58 63 65 66 66 65 66 68 69 71 72 71 72 72 72 72 72 72 73 72 72 72 72 72 72 72 72 72 71 72 71 71 71 71 71
65 61 48 45 47 51 52 53 53 53 54 54 53 56 59 65 65 66 66 66 66 67 69 70 72 71 73 72 72 72 73 73 73 73 72 72 72 72 72 72 72 72 72 71 71 71 71 72 71
63 56 47 46 50 52 52 53 52 53 50 52 55 53 60 64 66 67 66 67 67 69 70 70 71 72 72 72 72 73 73 73 73 72 71 72 72 73 72 72 72 72 72 72 72 72 71 72 71
65 58 46 46 47 49 52 52 54 50 53 56 54 51 56 63 66 66 66 66 67 69 70 71 71 71 71 70 72 73 73 73 73 73 71 72 72 73 73 72 72 72 71 72 72 72 70 72 72
63 48 45 45 47 50 51 52 53 54 53 54 56 55 59 65 66 64 65 65 67 70 70 70 70 71 72 72 70 72 73 73 73 73 73 73 72 73 72 72 72 72 73 72 71 70 70 72 72
54 49 48 49 48 51 51 51 52 52 52 54 57 60 63 64 63 62 62 62 64 67 69 69 70 69 69 68 71 73 73 72 73 73 74 73 73 73 71 72 73 72 72 72 72 71 71 72 70
55 45 48 49 49 52 51 51 51 52 51 53 55 60 62 61 61 62 61 61 63 65 67 69 70 71 69 69 70 70 71 72 73 74 73 73 73 71 70 72 73 74 73 70 73 72 72 70 70
47 49 49 51 52 51 50 51 51 51 50 52 56 60 61 60 60 62 61 61 63 65 67 67 69 71 70 70 70 70 70 70 70 71 73 72 70 71 71 71 73 73 73 71 72 70 70 71 71
48 48 49 51 52 51 52 50 51 50 55 55 59 60 60 60 61 63 63 61 62 63 64 66 69 71 71 71 71 70 70 69 69 71 72 71 71 72 71 70 70 70 71 69 71 71 70 71 71
48 47 47 51 52 52 51 51 51 52 57 57 58 59 59 60 61 63 63 61 61 61 62 64 68 70 69 70 71 70 69 69 69 70 71 73 72 72 72 70 69 70 70 70 71 71 71 72 71
47 44 44 48 50 50 51 50 50 52 55 56 57 58 59 60 61 62 63 62 62 62 63 63 66 68 69 70 70 70 69 67 68 69 71 72 73 73 72 71 69 68 70 70 70 71 71 71 70
43 43 41 45 49 49 49 44 51 52 53 55 56 58 59 60 61 62 63 63 64 63 65 65 63 64 67 68 69 69 69 68 69 69 70 71 72 73 72 70 68 69 71 71 72 72 71 70 70
43 39 40 42 48 48 47 46 52 51 51 52 55 57 58 60 61 61 63 63 64 65 66 67 67 65 67 69 69 70 69 71 69 70 70 71 72 72 72 71 70 71 69 70 70 71 71 70 70
30 39 41 40 43 46 46 46 51 51 50 50 52 53 55 57 59 60 61 62 63 65 66 67 67 67 69 69 70 69 70 70 71 71 71 72 71 72 72 70 71 71 70 70 70 71 71 70 70
30 32 35 43 43 43 44 45 48 51 50 50 50 51 52 53 55 58 59 60 61 64 65 66 67 69 68 68 68 68 68 69 70 70 72 72 72 72 72 70 71 72 71 70 71 70 70 68 68
30 30 32 44 45 42 44 43 47 50 50 50 50 50 51 52 53 55 56 57 60 62 64 66 67 68 69 68 68 68 68 68 69 70 71 72 72 72 72 71 71 71 71 71 71 70 69 69 70
24 26 36 39 43 43 42 38 44 48 50 51 51 51 50 50 52 54 56 57 59 61 64 66 67 68 69 69 69 68 68 69 68 69 70 71 72 72 72 73 72 72 72 70 71 71 70 68 70
16 27 37 41 38 32 40 22 36 44 48 50 50 51 51 51 52 53 54 57 59 61 64 65 67 68 68 69 67 67 66 65 65 66 67 70 72 72 72 72 72 72 70 70 71 71 71 71 68
18 32 40 41 32 26 37 28 30 38 42 48 50 50 50 51 52 52 53 54 57 60 63 65 67 68 68 69 68 68 67 66 66 67 69 70 70 72 71 72 73 72 71 71 72 72 72 71 69
16 17 24 26 23 18 22 29 16 22 34 41 49 50 50 50 51 53 55 56 57 60 62 64 67 68 68 69 69 69 68 67 66 66 66 66 68 69 71 71 72 73 72 72 72 72 72 72 71
16 13 14 12 17 11 18 28 21 26 32 38 43 50 51 51 51 53 55 56 58 60 61 62 66 67 68 68 68 68 68 68 67 68 67 67 66 68 69 72 73 72 73 73 73 72 72 72 71
15 13 13 12 10 13 22 19 18 43 46 45 43 47 52 52 52 52 54 57 59 61 62 63 65 66 67 67 68 69 68 67 68 68 67 68 67 69 71 72 73 73 73 73 73 71 69 69 68
15 14 14 12 14 12 20 31 40 45 43 47 48 51 51 52 52 53 54 57 59 61 63 64 67 66 66 66 68 69 69 69 68 70 70 69 70 70 72 72 72 72 72 71 69 69 68 67 66
13 13 10 13 14 14 24 32 27 40 42 47 48 49 52 54 55 55 56 56 59 59 62 64 67 65 62 67 67 68 68 70 69 70 70 70 71 72 72 72 72 72 71 71 70 70 69 67 66
11 11 12 16 19 16 19 23 42 43 44 44 47 48 51 55 60 59 59 58 59 61 64 64 64 64 60 64 69 69 69 69 70 68 69 70 71 73 73 73 72 71 71 70 70 69 69 67 69
12 11 12 9 18 28 32 23 37 45 44 45 44 49 56 60 58 59 61 64 62 64 65 65 65 64 62 62 65 68 68 67 66 67 68 72 72 73 73 73 72 72 72 71 70 69 68 69 68
Wind_Speed
6 4 2 1 1 3 3 3 2 9 8 2 10 3 3 3 2 5 8 5 15 15 12 12 10 10 8 6 6 9 11 10 10 12 13 11 10 11 13 12 13 13 14 14 15 14 15 14 15
5 4 1 0 4 7 4 4 5 6 7 15 8 8 3 4 4 10 11 13 16 14 12 12 10 8 8 7 7 8 9 9 9 10 13 11 12 12 12 12 14 13 13 14 14 15 15 14 14
7 1 2 2 3 5 5 6 12 13 13 9 5 7 3 4 10 13 10 17 15 12 11 11 10 10 8 7 6 9 8 8 10 10 12 11 12 12 13 13 12 11 14 13 13 13 13 12 13
6 2 2 5 11 5 5 9 10 13 10 5 11 9 6 6 6 5 17 17 15 12 11 10 8 10 8 7 6 9 8 9 11 11 11 9 11 12 12 12 11 12 13 12 12 13 12 11 11
3 1 4 5 7 6 6 6 5 6 5 8 5 8 8 5 8 16 16 14 14 12 11 10 8 9 7 7 4 6 9 9 9 11 12 10 9 10 11 11 11 11 11 11 12 10 9 7 7
2 1 5 6 4 4 6 5 6 9 7 12 13 12 5 5 13 13 13 13 11 12 10 9 8 8 8 7 4 8 7 8 9 11 11 9 8 9 10 10 9 10 9 10 9 7 6 5 7
2 3 3 4 4 3 5 5 6 7 12 10 6 7 4 8 12 13 12 11 10 9 8 8 8 9 9 6 3 7 7 7 9 9 8 8 8 9 9 7 9 9 9 7 7 6 6 7 11
1 2 3 2 3 3 7 4 9 14 7 9 3 4 8 10 13 14 12 11 9 8 7 6 6 7 6 6 3 7 7 7 7 8 7 5 6 6 10 7 7 8 7 7 6 4 5 6 7
1 2 2 2 4 6 12 6 6 4 13 5 6 6 11 19 15 14 12 11 10 7 7 7 8 7 6 5 4 5 5 5 7 5 6 5 4 4 5 4 4 5 7 6 4 4 4 5 5
2 3 3 1 5 9 13 11 10 6 13 5 10 15 18 17 15 14 13 12 11 10 9 7 6 6 6 5 4 3 3 4 4 4 5 4 3 3 2 2 2 2 4 3 4 4 6 3 4
1 3 4 5 4 18 15 12 5 15 8 6 11 16 16 15 13 11 10 10 10 9 8 8 7 6 7 6 6 5 4 4 4 3 3 3 3 2 1 1 1 2 2 1 2 4 4 4 3
3 4 2 3 9 13 14 13 7 9 1 10 18 20 16 14 12 11 10 10 10 10 10 8 8 7 7 6 6 5 4 4 4 4 3 3 2 0 0 0 1 0 1 2 2 2 2 5 5
2 4 5 4 9 11 14 9 5 7 6 14 19 18 16 14 12 10 9 9 10 11 11 11 10 9 8 6 5 5 4 5 4 4 3 3 2 1 1 2 2 1 1 1 1 3 3 1 2
3 9 4 4 10 10 9 6 6 8 14 17 19 18 17 17 15 11 11 11 11 11 12 12 12 11 10 9 7 6 5 5 5 5 4 5 4 4 3 3 4 3 3 2 2 2 6 7 6
6 6 3 4 4 3 9 6 5 13 16 18 17 16 15 16 15 17 14 14 13 13 12 14 13 13 12 10 8 8 8 7 7 6 6 6 5 4 5 5 5 4 4 5 5 3 3 5 8
3 2 2 3 6 4 3 4 5 17 20 17 16 14 15 16 20 17 16 16 14 13 14 14 13 13 13 11 9 8 7 8 8 7 7 8 7 7 6 6 6 5 6 6 6 7 6 6 5
1 3 5 3 9 6 5 2 3 16 17 17 17 17 17 16 18 19 19 18 17 17 15 15 14 14 13 11 10 9 9 8 9 9 9 10 9 8 8 8 8 7 8 8 7 6 6 8 5
5 5 5 5 8 7 7 9 5 14 16 16 17 16 17 17 21 20 20 19 18 18 17 16 15 16 14 11 10 9 9 10 9 11 11 10 9 8 8 8 9 8 9 9 8 7 5 7 6
10 8 7 3 5 8 11 7 7 15 15 15 18 19 20 21 18 19 20 20 20 18 18 19 18 17 15 13 12 11 12 10 11 12 11 11 10 9 9 10 10 9 9 11 8 4 6 7 7
8 4 5 1 4 7 3 10 11 15 20 21 20 20 22 21 16 16 17 19 22 22 21 19 20 18 17 14 10 8 7 9 8 7 10 11 11 10 9 11 11 11 9 9 8 9 6 7 7
5 5 7 4 7 1 1 7 7 10 14 18 21 19 19 21 20 17 17 20 20 21 22 22 22 20 18 16 10 6 5 6 7 7 7 11 11 12 11 12 11 10 7 10 9 8 8 8 5
4 7 10 14 10 4 2 4 5 8 12 19 20 22 23 22 20 19 18 18 20 22 20 21 20 20 17 15 15 15 14 13 12 10 8 7 8 10 11 11 11 12 10 10 10 9 9 9 12
2 2 8 7 5 2 4 4 3 1 12 21 22 24 25 24 22 23 22 21 21 19 22 22 20 17 17 17 17 15 16 13 11 10 9 9 9 9 10 10 12 13 11 12 12 12 11 10 12
14 7 8 5 1 5 3 8 5 5 8 8 16 23 25 23 21 21 19 17 17 18 19 19 19 19 17 16 16 18 18 15 11 9 10 11 9 8 8 10 12 12 13 14 13 12 13 15 14
4 2 3 4 5 3 3 5 13 4 6 7 9 11 18 21 19 18 17 17 18 21 19 17 17 17 16 17 18 19 19 17 16 14 12 11 11 11 11 10 10 11 14 15 14 14 14 13 13
7 8 8 5 4 2 3 7 3 2 8 8 9 8 8 12 14 19 16 18 19 19 19 18 17 15 14 19 22 19 19 17 20 18 14 12 11 11 11 11 11 12 13 13 13 11 9 11 13
6 7 2 5 1 3 2 5 11 2 0 4 7 6 6 6 5 10 13 15 15 17 20 21 18 18 22 23 20 19 18 19 15 12 9 12 12 11 13 13 13 12 12 11 10 10 12 12 15
4 12 5 3 4 5 4 6 8 7 9 9 10 8 4 3 3 7 11 13 14 17 19 20 22 23 27 18 17 18 16 11 13 13 12 11 12 11 13 14 13 12 12 12 11 12 12 14 16
6 7 3 4 1 4 3 5 8 11 15 16 12 10 7 5 1 4 7 7 11 16 22 23 24 26 21 7 11 13 14 12 12 13 13 13 11 9 13 13 12 13 13 14 14 14 13 12 13
3 7 13 12 7 2 2 8 3 8 14 12 14 12 7 3 4 3 5 7 12 17 19 21 22 20 17 9 10 14 11 15 17 13 14 13 9 8 12 13 12 13 13 12 14 14 11 11 8
Wind_Direction
191 137 105 246 81 80 68 27 8 123 132 114 138 183 123 61 36 93 132 151 144 147 150 152 146 136 125 119 116 102 116 128 122 133 128 128 133 133 118 118 112 109 111 110 110 109 107 107 107
129 100 76 60 76 82 45 8 117 139 128 129 111 115 85 88 65 116 132 148 149 147 147 147 147 147 136 131 128 118 119 121 125 136 125 127 139 134 128 121 112 118 117 106 110 113 113 110 109
153 144 244 72 69 76 96 93 101 103 135 134 115 64 61 53 104 136 135 148 148 143 144 143 155 146 143 131 122 119 122 130 136 122 113 116 119 120 124 115 117 120 116 113 106 106 110 111 111
180 210 215 75 77 58 97 128 106 120 121 90 116 73 75 82 122 133 143 149 146 137 141 146 141 139 143 136 124 137 145 132 119 114 113 111 121 114 117 124 123 113 108 111 110 111 109 112 125
260 245 51 87 78 93 96 133 116 108 97 105 121 104 98 31 109 133 144 151 144 138 145 153 150 144 132 112 115 129 127 123 118 118 119 117 107 123 124 123 121 112 117 112 117 115 116 119 134
218 219 70 73 71 95 109 128 87 86 93 104 99 107 88 106 129 140 146 145 141 141 150 153 152 152 142 119 89 118 87 99 102 107 120 120 116 117 112 113 119 117 123 121 123 115 100 85 113
322 67 76 93 79 89 120 112 102 100 120 89 110 103 103 130 139 141 143 138 140 142 151 159 160 161 140 133 114 113 111 94 97 102 105 117 115 121 121 110 116 121 116 122 107 85 64 79 97
37 82 115 119 103 91 130 96 117 120 88 120 95 130 146 151 144 140 141 142 146 150 155 170 164 159 155 148 113 91 112 108 104 118 121 113 112 111 106 122 105 117 119 111 118 120 79 60 77
220 106 111 145 155 136 149 124 139 96 137 78 44 117 124 141 145 145 146 152 155 157 167 171 181 174 164 158 146 118 121 124 125 120 125 125 100 106 119 87 103 99 107 117 124 110 88 73 70
43 55 9 21 152 150 155 146 143 136 153 88 76 100 128 145 155 158 168 169 172 172 179 179 181 186 185 185 162 148 119 120 107 104 99 97 91 81 68 78 101 106 107 137 141 114 100 80 73
87 51 340 32 157 144 145 142 122 136 175 163 162 150 153 157 166 169 175 180 181 181 186 188 187 196 199 194 177 175 169 159 143 132 114 98 114 102 95 5 320 67 74 135 109 135 117 149 133
42 50 54 103 141 147 145 142 132 152 202 166 163 160 159 170 182 185 186 184 187 193 197 196 196 193 194 191 189 181 186 190 183 165 165 168 175 257 148 293 320 45 145 202 225 193 154 150 151
42 52 52 123 140 136 139 145 137 158 96 143 147 160 167 180 190 197 196 195 197 200 202 204 197 198 195 199 193 196 199 202 206 195 194 206 219 262 262 247 244 233 221 226 234 278 262 198 184
101 88 50 112 126 133 136 146 147 161 136 142 158 171 181 188 193 196 203 205 208 208 206 205 206 202 202 206 209 213 217 217 217 214 222 235 251 276 255 243 247 256 244 255 267 302 315 318 315
135 99 76 100 125 117 134 147 188 165 161 159 174 182 191 200 197 206 206 210 207 207 202 207 208 204 207 211 216 219 221 215 223 225 230 238 251 267 267 261 258 265 272 276 266 258 272 304 296
140 102 205 148 157 162 213 23 156 164 165 173 180 190 200 207 212 213 212 210 207 207 205 201 204 204 202 209 212 222 222 225 229 229 236 236 238 239 252 255 266 277 286 283 278 274 268 267 272
159 257 222 205 196 159 208 4 112 172 180 178 188 196 205 214 219 220 217 215 211 209 206 205 201 205 203 205 212 218 224 224 237 242 245 246 245 243 245 252 261 275 274 276 272 276 255 273 265
299 234 212 224 195 190 191 237 140 182 190 195 197 204 213 220 225 221 222 221 217 210 208 206 203 204 203 202 208 219 227 233 230 243 244 241 238 239 238 253 253 261 259 258 251 252 245 258 282
280 245 244 248 190 198 221 237 200 192 201 208 210 214 218 221 229 226 221 218 216 216 211 208 206 206 198 201 207 221 225 229 239 237 230 235 235 235 241 255 260 250 257 271 274 249 251 270 254
229 224 216 127 187 211 234 247 223 198 210 211 213 219 225 231 226 219 219 218 217 217 211 206 211 209 211 211 215 218 214 234 243 248 233 226 231 232 233 244 256 258 255 267 253 226 244 254 241
198 226 173 151 146 174 279 266 219 223 220 214 224 226 230 227 227 220 212 208 211 215 214 207 206 206 210 214 211 203 219 236 243 237 236 229 226 232 234 239 247 268 270 272 254 251 256 280 264
10 219 154 146 163 226 252 288 259 213 218 219 222 223 230 229 228 229 220 211 208 213 209 211 208 207 207 205 216 217 226 235 244 254 252 241 234 243 235 237 245 255 260 262 268 263 254 253 270
29 100 130 150 132 193 202 256 249 265 228 226 220 223 228 228 225 225 223 222 215 205 207 205 207 207 201 198 207 212 226 238 248 251 262 256 252 250 251 249 247 249 249 254 253 251 241 243 257
151 92 75 86 181 255 203 230 274 207 236 246 215 224 228 230 225 229 222 217 215 205 204 204 201 205 205 204 206 211 220 229 237 242 251 260 265 264 255 254 253 251 251 255 257 246 243 243 244
159 159 230 210 193 248 41 217 250 239 273 267 247 230 229 232 230 228 216 201 202 199 198 199 201 202 202 212 209 219 226 224 226 232 243 250 266 263 264 258 254 256 252 253 251 251 252 256 255
195 231 247 269 221 156 117 231 251 293 292 272 237 227 235 237 224 234 229 210 199 188 192 193 195 187 198 210 216 214 215 220 227 220 230 241 245 264 271 267 260 258 256 253 248 254 258 262 261
165 198 159 129 60 272 224 270 275 181 164 156 171 176 212 242 236 245 241 225 211 186 192 190 183 185 215 216 218 217 220 234 251 250 230 251 257 256 259 257 254 254 250 240 234 254 266 270 272
221 142 188 218 207 228 222 268 232 182 173 160 156 160 193 243 251 250 240 234 211 201 190 185 184 194 226 202 212 215 227 229 236 248 246 253 258 257 254 252 250 251 246 244 243 257 271 277 273
159 196 101 138 208 217 222 249 207 204 183 166 165 158 163 142 148 269 274 222 187 182 184 186 190 205 216 179 207 202 212 207 223 236 248 254 261 252 253 252 244 245 244 245 247 256 272 280 284
213 216 184 213 195 202 276 261 205 230 183 177 161 157 157 110 89 83 120 142 168 176 183 188 199 214 218 225 220 221 205 216 226 230 249 248 262 255 255 249 242 248 250 248 245 256 261 251 271